"TOA5","AWS1","CR1000","7964","CR1000.Std.14","CPU:AWS1_114.CR1","64363","TBL110"
"TIMESTAMP","RECORD","Wind_spd_WVc(1)","Wind_spd_WVc(2)","Air_Temp_Avg","Humidity_Avg","SW_upper_Wm2_Avg","Rain_Tot","Press_Avg","Issui_Tot","Depth_cm","SR50A_Raw","Quality","Ground_Temp_Avg(1)","Ground_Temp_Avg(2)","SW_lower_Wm2_Avg","Albedo_Avg","SWC_per(1)","SWC_per(2)","Period(1)","Period(2)"
"TS","RN","","","","","","","","","","","","","","","","","","",""
"","","WVc","WVc","Avg","Avg","Avg","Tot","Avg","Tot","Smp","Smp","Smp","Avg","Avg","Avg","Avg","Smp","Smp","Smp","Smp"
"2018-03-01 00:00:00",329821,3.504,149.1,1.868,68.23,0,0,852.9647,0,92.8,2.243,189,0.875,1.407,0.02275112,0,52.16,59.61,33.83,35.59
"2018-03-01 00:10:00",329822,3.578,149.4,2.472,67.41,0,0,852.5641,0,92.9,2.241,189,0.875,1.411,0.003791911,0,52.16,59.61,33.83,35.59
"2018-03-01 00:20:00",329823,4.219,167.3,2.762,68.89,0,0,852.5453,0,92.7,2.242,189,0.887,1.409,0.003792071,0,52.16,59.61,33.83,35.59
"2018-03-01 00:30:00",329824,3.26,158.9,2.394,72.39,0,0,852.09,0,92.9,2.241,189,0.894,1.402,0,0,52.16,59.61,33.83,35.59
"2018-03-01 00:40:00",329825,3.302,150.1,2.571,73.47,0,0,851.4954,0,92.8,2.241,185,0.895,1.4,0,0,52.16,59.61,33.83,35.59
"2018-03-01 00:50:00",329826,3.996,138.2,2.947,73.13,0,0,851.0228,0,92.7,2.24,190,0.893,1.385,0,0,52.16,59.61,33.83,35.59
"2018-03-01 01:00:00",329827,3.713,154.8,3.29,72.35,0,0,850.6098,0,92.8,2.238,177,0.898,1.375,0,0,52.16,59.61,33.83,35.59
"2018-03-01 01:10:00",329828,3.502,149.9,3.691,71.19,0,0,850.0396,0,92.3,2.242,169,0.905,1.375,0,0,52.16,59.61,33.83,35.59
"2018-03-01 01:20:00",329829,3.535,143.1,3.617,72.32,0,0,849.7836,0,92.5,2.24,169,0.905,1.372,0,0,52.16,59.61,33.83,35.59
"2018-03-01 01:30:00",329830,3.718,156,3.731,73.74,0,0,849.5364,0,92.5,2.239,173,0.899,1.372,0,0,52.16,59.61,33.83,35.59
"2018-03-01 01:40:00",329831,4.373,149.4,3.963,74.4,0,0,849.0795,0,92.5,2.239,173,0.898,1.371,0,0,52.16,59.61,33.83,35.59
"2018-03-01 01:50:00",329832,3.008,142.3,3.967,76.49,0,0,848.5048,0,92.2,2.241,187,0.89,1.366,0,0,52.16,59.61,33.83,35.59
"2018-03-01 02:00:00",329833,4.303,146.6,4.102,76.92,0,0,848.2308,0,92.4,2.24,177,0.882,1.363,0,0,52.16,59.61,33.83,35.59
"2018-03-01 02:10:00",329834,4.481,157.5,3.927,78.58,0,0,847.8068,0,92.2,2.242,185,0.874,1.358,0,0,52.16,59.61,33.83,35.59
"2018-03-01 02:20:00",329835,4.054,148.3,3.84,79.41,0,0,847.1777,0,92.2,2.242,189,0.879,1.357,0,0,52.16,59.61,33.83,35.59
"2018-03-01 02:30:00",329836,4.76,152.4,3.934,79.42,0,0,847.1312,0,92,2.244,190,0.88,1.361,0,0,52.16,59.61,33.83,35.59
"2018-03-01 02:40:00",329837,4.153,145.3,3.816,80.4,0,0,846.6188,0,92.1,2.244,186,0.872,1.353,0,0,52.16,59.61,33.83,35.59
"2018-03-01 02:50:00",329838,4.3,143.1,3.778,80.4,0,0,846.1698,0,91.9,2.245,182,0.867,1.35,0,0,52.16,59.67,33.83,35.6
"2018-03-01 03:00:00",329839,4.923,146.1,3.84,80.2,0,0,845.9823,0,91.7,2.247,188,0.867,1.353,0,0,52.16,59.61,33.83,35.59
"2018-03-01 03:10:00",329840,4.078,146.9,3.712,81.6,0,0,845.5464,0,91.5,2.25,188,0.863,1.347,0,0,52.16,59.61,33.83,35.59
"2018-03-01 03:20:00",329841,4.863,148.9,3.822,81.3,0,0.5,845.1617,0.5,91.5,2.249,190,0.857,1.339,0,0,52.16,59.61,33.83,35.59
"2018-03-01 03:30:00",329842,5.021,152.9,3.912,80.7,0,0,844.9338,0,91.5,2.249,192,0.848,1.335,0,0,52.16,59.61,33.83,35.59
"2018-03-01 03:40:00",329843,4.341,152.8,3.763,81.3,0,0,844.4717,0,91.6,2.248,180,0.845,1.337,0,0,52.16,59.61,33.83,35.59
"2018-03-01 03:50:00",329844,4.343,149.8,3.895,81,0,0.5,844.2714,0.5,91.3,2.251,198,0.838,1.333,0,0,52.16,59.61,33.83,35.59
"2018-03-01 04:00:00",329845,5.178,152.8,3.851,81.3,0,0,844.0186,0.5,91.2,2.252,188,0.828,1.328,0,0,52.16,59.61,33.83,35.59
"2018-03-01 04:10:00",329846,3.783,144.4,3.943,81.6,0,1,843.6815,0.5,91,2.254,174,0.829,1.33,0,0,52.16,59.61,33.83,35.59
"2018-03-01 04:20:00",329847,3.711,143.9,3.919,82.6,0,0.5,843.4034,0.5,90.3,2.261,178,0.848,1.331,0,0,52.16,59.61,33.83,35.59
"2018-03-01 04:30:00",329848,3.244,148.6,3.921,83.4,0,0.5,842.925,1,90.6,2.258,191,0.842,1.33,0,0,52.1,59.61,33.81,35.59
"2018-03-01 04:40:00",329849,3.618,149.1,3.91,83.6,0.01179662,1,842.5922,0.5,90,2.264,184,0.834,1.322,0,0,52.16,59.61,33.83,35.59
"2018-03-01 04:50:00",329850,3.161,147.8,3.98,83.5,0,0.5,842.2569,1,89.6,2.268,178,0.816,1.32,0,0,52.16,59.61,33.83,35.59
"2018-03-01 05:00:00",329851,2.785,147.6,4.074,83.8,0,0.5,842.2249,0.5,89.7,2.266,180,0.804,1.316,0,0,52.38,59.61,33.88,35.59
"2018-03-01 05:10:00",329852,1.813,160.6,3.985,85.4,0,1.5,842.7764,1.5,89.4,2.27,189,0.801,1.32,0.00379131,0,52.77,59.67,33.98,35.6
"2018-03-01 05:20:00",329853,1.555,42.57,3.228,90,0.03932006,1.5,844.141,2,89.8,2.272,190,0.807,1.314,0.8947223,0.546,53.56,59.73,34.17,35.62
"2018-03-01 05:30:00",329854,1.696,146.1,2.6,99.5,0.05897764,0.5,843.534,0.5,90,2.266,191,0.82,1.301,1.205568,0.335,54.07,59.91,34.29,35.66
"2018-03-01 05:40:00",329855,2.62,142.5,4.083,82.4,1.659207,0,841.9918,0,90,2.26,173,0.805,1.294,0.3980533,0.293,54.92,60.27,34.49,35.74
"2018-03-01 05:50:00",329856,1.963,145.5,5.065,74.5,4.206954,0,841.4081,0,90.1,2.257,173,0.791,1.292,0.8908699,0.206,55.32,60.44,34.59,35.78
"2018-03-01 06:00:00",329857,1.56,144,5.201,73.86,3.102097,0,841.1342,0,89.9,2.259,189,0.773,1.287,0.837786,0.405,55.49,60.68,34.63,35.83
"2018-03-01 06:10:00",329858,0.995,15.58,4.604,81.2,0.1769244,0.5,841.1047,0,89.5,2.27,173,0.769,1.295,0.2236608,0.41,55.6,60.8,34.65,35.86
"2018-03-01 06:20:00",329859,0.637,325.2,2.98,97.1,0,0.5,841.8316,0.5,89.6,2.275,168,0.769,1.301,0,0,55.66,60.98,34.67,35.9
"2018-03-01 06:30:00",329860,0.277,331.7,2.037,100,0.05111225,1,842.5079,1.5,88.8,2.282,182,0.78,1.295,0.890865,0.233,55.72,61.1,34.68,35.93
"2018-03-01 06:40:00",329861,1.168,139.5,2.603,100,0.8295859,0,842.1013,0.5,89.5,2.274,187,0.785,1.289,0.8567432,1.064,55.77,61.28,34.7,35.97
"2018-03-01 06:50:00",329862,1.169,130.2,2.814,100,1.210948,0,841.465,0,89.2,2.276,178,0.8,1.285,0.5041845,0.433,55.77,61.46,34.7,36.01
"2018-03-01 07:00:00",329863,0.857,192.4,3.244,100,1.993339,0.5,841.3954,0,89.3,2.273,173,0.793,1.284,0.9060117,0.405,55.89,61.64,34.72,36.05
"2018-03-01 07:10:00",329864,0.815,53.7,3.303,100,3.196416,0,841.5429,0.5,89.4,2.274,172,0.787,1.285,1.341958,0.377,55.95,61.76,34.74,36.08
"2018-03-01 07:20:00",329865,0.431,248.9,2.253,100,0.243761,1,842.51,1,89.5,2.277,191,0.791,1.285,2.229013,1.22,55.95,61.88,34.74,36.11
"2018-03-01 07:30:00",329866,0.315,241.6,1.632,100,1.773165,1,842.7924,0.5,89.7,2.277,192,0.806,1.284,2.498163,1.411,55.95,62,34.74,36.13
"2018-03-01 07:40:00",329867,0.311,253.1,1.641,100,10.41095,0,842.7334,0.5,89.8,2.274,190,0.807,1.285,5.576324,0.55,56,62.12,34.75,36.16
"2018-03-01 07:50:00",329868,0.425,86.4,1.884,100,11.93643,0,842.6554,0,89.6,2.276,192,0.808,1.284,5.792401,0.486,56,62.24,34.75,36.19
"2018-03-01 08:00:00",329869,0.298,18.75,1.898,100,25.98807,0.5,842.9103,0,89.6,2.276,190,0.808,1.284,12.39983,0.474,56,62.24,34.75,36.19
"2018-03-01 08:10:00",329870,0.291,6.516,1.985,100,21.43131,0,843.1569,0,89.7,2.274,185,0.811,1.284,10.04951,0.468,56.06,62.3,34.76,36.2
"2018-03-01 08:20:00",329871,0.509,24.94,2.226,100,49.32622,0,843.2222,0,89.4,2.276,188,0.814,1.285,23.20751,0.47,56.06,62.42,34.76,36.23
"2018-03-01 08:30:00",329872,0.389,46.8,2.454,100,38.43954,0,843.2306,0,89.4,2.276,179,0.806,1.285,17.78282,0.46,56.06,62.42,34.76,36.23
"2018-03-01 08:40:00",329873,0.544,50,2.574,100,35.64808,0,843.2201,0,89.7,2.272,183,0.804,1.288,16.76309,0.47,56.06,62.48,34.76,36.24
"2018-03-01 08:50:00",329874,0.532,101.9,2.573,100,28.77953,0,843.2222,0,89.4,2.276,187,0.801,1.284,13.42715,0.459,56,62.48,34.75,36.24
"2018-03-01 09:00:00",329875,0.858,23.67,2.493,100,69.91223,0,843.2623,0,89.5,2.275,187,0.798,1.29,33.42382,0.478,56,62.48,34.75,36.24
"2018-03-01 09:10:00",329876,0.854,29.79,2.444,100,73.87138,0,843.8669,0,89.4,2.276,187,0.797,1.287,35.50879,0.477,56,62.48,34.75,36.24
"2018-03-01 09:20:00",329877,1.221,19.24,2.238,100,60.38589,0,844.2777,0,89.2,2.279,187,0.799,1.3,29.01508,0.48,56,62.48,34.75,36.24
"2018-03-01 09:30:00",329878,1.389,40.03,1.905,99.4,57.9011,0,844.539,0,89.1,2.281,186,0.799,1.297,28.24933,0.487,56,62.48,34.75,36.24
"2018-03-01 09:40:00",329879,1.281,45.48,1.426,94.8,39.80381,0,844.9225,0,89.2,2.283,187,0.804,1.285,19.64413,0.494,55.95,62.48,34.74,36.24
"2018-03-01 09:50:00",329880,1.045,57.74,1.065,94.7,57.11871,0,845.129,0,89.3,2.283,187,0.809,1.287,28.51469,0.502,55.95,62.48,34.74,36.24
"2018-03-01 10:00:00",329881,0.59,57.85,1.093,92.3,76.89874,0,845.032,0,89.2,2.284,179,0.808,1.285,37.21845,0.484,55.95,62.42,34.74,36.23
"2018-03-01 10:10:00",329882,0.949,37.21,1.007,92,58.04264,0,845.0426,0,89.2,2.284,179,0.811,1.284,28.74593,0.496,55.95,62.42,34.74,36.23
"2018-03-01 10:20:00",329883,1,40.59,0.967,90.8,55.72691,0,845.1479,0,89,2.286,167,0.814,1.284,27.94606,0.502,55.89,62.42,34.72,36.23
"2018-03-01 10:30:00",329884,0.649,46.68,1.011,91.7,93.48235,0,845.2575,0,88.9,2.286,168,0.82,1.285,46.46431,0.497,55.89,62.36,34.72,36.21
"2018-03-01 10:40:00",329885,0.504,55.89,1.046,92.2,84.47891,0,845.4514,0,88.9,2.286,167,0.813,1.288,41.62341,0.492,55.89,62.36,34.72,36.21
"2018-03-01 10:50:00",329886,0.724,48.63,1.054,92.7,136.172,0,845.6409,0,88.9,2.286,168,0.812,1.284,67.06373,0.494,55.83,62.36,34.71,36.21
"2018-03-01 11:00:00",329887,0.562,41.05,1.388,91.2,351.0473,0,845.7548,0,88.7,2.285,169,0.796,1.297,165.0493,0.471,55.77,62.36,34.7,36.21
"2018-03-01 11:10:00",329888,0.61,59.98,2.136,85.3,345.2206,0,845.7379,0,88.6,2.285,172,0.765,1.429,162.9757,0.47,55.77,62.3,34.7,36.2
"2018-03-01 11:20:00",329889,0.656,69.04,1.796,85.1,186.8979,0,845.681,0,88.4,2.289,185,0.765,1.415,89.81634,0.48,55.83,62.3,34.71,36.2
"2018-03-01 11:30:00",329890,0.598,58,1.629,87.2,288.271,0,845.5497,0,88.6,2.287,189,0.765,1.412,139.8023,0.483,55.77,62.3,34.7,36.2
"2018-03-01 11:40:00",329891,0.489,15.98,1.807,84.7,202.1447,0,845.6888,0,88.4,2.289,188,0.787,1.406,98.86507,0.482,55.77,62.3,34.7,36.2
"2018-03-01 11:50:00",329892,0.656,294.9,1.847,84.3,330.1349,0,845.7216,0.5,88.4,2.288,177,0.824,1.4,172.8888,0.51,55.77,62.24,34.7,36.19
"2018-03-01 12:00:00",329893,0.494,305.5,2.173,82.1,228.0742,0,845.7084,0,88.2,2.289,177,0.844,1.366,109.0494,0.474,55.72,62.3,34.68,36.2
"2018-03-01 12:10:00",329894,0.532,274.4,1.858,81.8,140.4003,0,845.7652,0,88.3,2.29,173,0.795,1.348,66.01469,0.47,55.66,62.24,34.67,36.19
"2018-03-01 12:20:00",329895,0.941,269.2,2.027,79.66,496.5482,0,845.8225,0,88.1,2.288,167,0.784,1.314,237.1985,0.472,55.66,62.18,34.67,36.17
"2018-03-01 12:30:00",329896,0.698,280.9,2.88,74.9,678.7033,0,846.0244,0,87.9,2.289,166,0.798,1.278,315.1938,0.454,55.66,62.24,34.67,36.19
"2018-03-01 12:40:00",329897,0.959,277.4,2.453,74.98,357.6924,0,846.0327,0,87.9,2.29,172,0.776,1.315,162.7025,0.446,55.66,62.18,34.67,36.17
"2018-03-01 12:50:00",329898,0.591,259.7,2.16,75.22,145.4173,0,846.079,0,88,2.292,171,0.784,1.327,65.62761,0.451,55.66,62.18,34.67,36.17
"2018-03-01 13:00:00",329899,0.716,263.9,1.704,75.58,130.1673,0,846.0684,0,88.1,2.292,187,0.794,1.321,60.90181,0.464,55.6,62.12,34.65,36.16
"2018-03-01 13:10:00",329900,0.816,299.5,1.604,72.92,114.1748,0,845.9252,0,88.1,2.293,186,0.78,1.275,53.55763,0.47,55.6,62.18,34.65,36.17
"2018-03-01 13:20:00",329901,0.56,307.9,1.438,74.87,104.7146,0,845.7988,0,88,2.294,186,0.749,1.285,49.56724,0.473,55.55,62.12,34.64,36.16
"2018-03-01 13:30:00",329902,0.554,291.4,1.156,76.56,92.00802,0,845.6578,0,88.1,2.295,187,0.743,1.313,43.90566,0.476,55.6,62.12,34.65,36.16
"2018-03-01 13:40:00",329903,0.817,299.8,0.947,77.26,67.78173,0,845.6199,0,87.9,2.297,188,0.762,1.323,32.43092,0.476,55.49,62.12,34.63,36.16
"2018-03-01 13:50:00",329904,0.537,264.3,0.831,80.5,97.56544,0,845.6661,0,87.8,2.299,182,0.754,1.324,47.79374,0.488,55.43,62.12,34.61,36.16
"2018-03-01 14:00:00",329905,0.601,274,0.492,84.4,76.91178,0,845.6746,0,87.7,2.302,165,0.693,1.333,39.32789,0.515,55.26,62.12,34.57,36.16
"2018-03-01 14:10:00",329906,0.301,240.9,0.249,91.3,61.32436,0,845.5988,0,87.6,2.303,166,0.677,1.362,33.95438,0.563,55.15,62.06,34.55,36.15
"2018-03-01 14:20:00",329907,0.218,255.5,0.101,96.2,34.29667,0,845.5061,0,87.7,2.302,186,0.689,1.377,20.59678,0.607,55.15,62.06,34.55,36.15
"2018-03-01 14:30:00",329908,0.197,27.41,-0.039,100,31.71009,0,845.8958,0,87.7,2.303,188,0.735,1.396,20.26934,0.639,55.15,62,34.55,36.13
"2018-03-01 14:40:00",329909,0.356,70.1,-0.174,100,54.03444,0,845.7921,0.5,87.5,2.306,180,0.774,1.356,37.87781,0.695,55.09,62,34.53,36.13
"2018-03-01 14:50:00",329910,0.24,29.98,-0.237,100,34.23492,0,845.5573,0,87.4,2.307,190,0.795,1.306,26.11759,0.766,55.09,62,34.53,36.13
"2018-03-01 15:00:00",329911,0.743,62.51,-0.29,100,32.91898,0,845.7038,0,87.5,2.307,189,0.808,1.281,26.38,0.801,54.97,61.94,34.51,36.12
"2018-03-01 15:10:00",329912,0.771,48.7,-0.312,100,33.25352,0,845.8405,0,87.4,2.307,190,0.813,1.283,26.30827,0.792,54.92,61.94,34.49,36.12
"2018-03-01 15:20:00",329913,0.509,60.24,-0.229,100,28.84237,0,845.8568,0,87.3,2.308,189,0.809,1.286,22.9459,0.795,54.92,61.94,34.49,36.12
"2018-03-01 15:30:00",329914,0.659,35.32,-0.241,100,30.30497,0.5,846.0109,0,87,2.311,187,0.812,1.299,24.90579,0.821,54.86,61.88,34.48,36.11
"2018-03-01 15:40:00",329915,0.557,48.58,-0.354,100,23.62514,0,845.8956,0,87,2.311,194,0.81,1.315,21.08842,0.907,54.46,61.94,34.38,36.12
"2018-03-01 15:50:00",329916,0.46,52.27,-0.367,100,15.49847,0,846.1149,0.5,86.8,2.314,177,0.794,1.324,15.04583,0.971,54.18,61.88,34.32,36.11
"2018-03-01 16:00:00",329917,0.669,48.48,-0.479,100,12.16445,0.5,846.2519,0,87.5,2.307,195,0.792,1.331,13.47642,1.112,54.12,61.94,34.3,36.12
"2018-03-01 16:10:00",329918,0.49,54.81,-0.486,100,9.844793,0,846.2582,0.5,87.8,2.304,194,0.766,1.341,12.10793,1.232,54.12,61.88,34.3,36.11
"2018-03-01 16:20:00",329919,0.499,52.68,-0.456,100,6.534364,0.5,846.4099,0,88.2,2.3,200,0.743,1.349,9.621142,1.469,54.07,61.88,34.29,36.11
"2018-03-01 16:30:00",329920,0.543,52.12,-0.469,100,5.983936,0,846.6205,0.5,87.9,2.303,206,0.703,1.354,10.14049,1.699,54.07,61.88,34.29,36.11
"2018-03-01 16:40:00",329921,0.562,66.48,-0.563,100,3.680003,0,846.7576,0.5,89,2.292,200,0.709,1.368,6.577101,1.789,54.07,61.88,34.29,36.11
"2018-03-01 16:50:00",329922,0.384,23.82,-0.538,100,2.728559,0.5,846.8313,0.5,90,2.282,192,0.704,1.37,5.727977,2.098,54.07,61.88,34.29,36.11
"2018-03-01 17:00:00",329923,0.616,23.13,-0.637,100,2.315802,0,846.7807,0.5,90.2,2.28,188,0.697,1.377,5.610618,2.429,54.01,61.82,34.27,36.09
"2018-03-01 17:10:00",329924,0.33,32.11,-0.604,100,1.973811,0,847.141,0.5,91,2.273,174,0.696,1.386,5.311325,2.625,54.01,61.82,34.27,36.09
"2018-03-01 17:20:00",329925,0.453,56.99,-0.674,100,1.211082,0.5,847.3728,0,91,2.273,197,0.714,1.4,3.340115,2.758,53.95,61.82,34.26,36.09
"2018-03-01 17:30:00",329926,0.551,89,-0.663,100,0.8572538,0.5,847.7613,0.5,90.6,2.277,170,0.733,1.418,1.869228,2.086,53.95,61.82,34.26,36.09
"2018-03-01 17:40:00",329927,0.415,77.34,-0.68,100,0.2831479,0,848.0651,0,90.7,2.276,193,0.767,1.435,0.1251264,0.354,53.9,61.82,34.25,36.09
"2018-03-01 17:50:00",329928,0.593,39.75,-0.745,100,0.2517033,0,848.2988,0,91.2,2.272,195,0.79,1.449,0,0,53.95,61.76,34.26,36.08
"2018-03-01 18:00:00",329929,0.622,53.99,-1.107,100,0.6096038,0.5,848.403,0.5,91.6,2.269,192,0.803,1.454,0,0,53.9,61.76,34.25,36.08
"2018-03-01 18:10:00",329930,0.684,250.8,-1.371,100,0.5230833,0.5,848.6528,0,91.6,2.271,194,0.814,1.456,0,0,53.9,61.76,34.25,36.08
"2018-03-01 18:20:00",329931,1.283,222.5,-1.818,100,1.061901,0,848.8117,0.5,91.8,2.27,176,0.846,1.457,0,0,53.9,61.76,34.25,36.08
"2018-03-01 18:30:00",329932,0.682,183.8,-1.994,100,0.5112859,0.5,849.0781,0,91.4,2.274,192,0.846,1.457,0,0,53.84,61.76,34.23,36.08
"2018-03-01 18:40:00",329933,0.662,255.9,-2.277,100,0.4562244,0,849.2089,0,92,2.27,192,0.852,1.464,0.00379213,0.008,53.84,61.76,34.23,36.08
"2018-03-01 18:50:00",329934,0.316,220.6,-2.285,100,0,0,849.3787,0,92,2.27,192,0.852,1.487,0,0,53.84,61.76,34.23,36.08
"2018-03-01 19:00:00",329935,0.726,232.1,-2.448,100,0.01966484,0.5,849.5494,0,91.8,2.273,170,0.852,1.502,0,0,53.84,61.76,34.23,36.08
"2018-03-01 19:10:00",329936,0.786,261.1,-2.679,100,0.1376539,0,849.8835,0,91.4,2.278,179,0.852,1.493,0,0,53.84,61.7,34.23,36.06
"2018-03-01 19:20:00",329937,0.693,266,-2.883,99.4,0.1730506,0,849.9026,0,91.4,2.279,171,0.852,1.471,0,0,53.84,61.7,34.23,36.06
"2018-03-01 19:30:00",329938,0.561,262.8,-2.993,98.2,0.07079343,0,849.9449,0,91.2,2.28,192,0.852,1.439,0,0,53.84,61.7,34.23,36.06
"2018-03-01 19:40:00",329939,0.477,256.5,-3.023,97.5,0,0,850.0207,0,91.4,2.279,174,0.852,1.405,0,0,53.78,61.7,34.22,36.06
"2018-03-01 19:50:00",329940,0.177,240.3,-2.961,98.2,0,0,850.0608,0,91.1,2.281,189,0.852,1.389,0,0,53.84,61.7,34.23,36.06
"2018-03-01 20:00:00",329941,0.085,221.1,-2.948,98.6,0,0.5,850.0755,0,91.1,2.281,170,0.844,1.379,0,0,53.78,61.7,34.22,36.06
"2018-03-01 20:10:00",329942,0.256,324.3,-3.018,98.6,0,0,850.2167,0,91.2,2.281,175,0.842,1.377,0,0,53.78,61.64,34.22,36.05
"2018-03-01 20:20:00",329943,0.425,265.6,-3.136,97.6,0,0,850.4064,0,91,2.283,193,0.835,1.374,0,0,53.78,61.64,34.22,36.05
"2018-03-01 20:30:00",329944,0.642,289.8,-3.348,97.1,0.09045828,0,850.613,0,90.9,2.285,186,0.809,1.374,0,0,53.78,61.64,34.22,36.05
"2018-03-01 20:40:00",329945,0.621,266.1,-3.423,99.5,0.03932969,0,850.6404,0.5,92.7,2.267,249,0.785,1.372,0,0,53.78,61.64,34.22,36.05
"2018-03-01 20:50:00",329946,1.07,313.8,-3.65,97.2,0.2084474,0,850.7078,0,92.5,2.271,202,0.774,1.371,0,0,53.73,61.7,34.21,36.06
"2018-03-01 21:00:00",329947,1.066,329.6,-3.647,90.7,0.06686047,0,850.8322,0,92.2,2.273,193,0.771,1.371,0,0,53.78,61.7,34.22,36.06
"2018-03-01 21:10:00",329948,0.621,308.8,-3.645,90.3,0,0,851.1062,0,92.2,2.273,195,0.768,1.371,0,0,53.73,61.64,34.21,36.05
"2018-03-01 21:20:00",329949,0.478,349.2,-3.729,90.1,0,0.5,851.1272,0,91.8,2.278,198,0.769,1.371,0,0,53.73,61.64,34.21,36.05
"2018-03-01 21:30:00",329950,0.609,281.5,-3.875,90.1,0,0,851.3021,0,92,2.277,194,0.767,1.371,0,0,53.73,61.64,34.21,36.05
"2018-03-01 21:40:00",329951,0.95,284.6,-4.028,87.5,0.007865938,0,851.3801,0,92.5,2.272,192,0.776,1.371,0,0,53.73,61.64,34.21,36.05
"2018-03-01 21:50:00",329952,0.941,298.8,-4.074,88.1,0,0,851.4244,0,92.1,2.277,172,0.774,1.371,0,0,53.73,61.58,34.21,36.04
"2018-03-01 22:00:00",329953,1.298,286,-4.238,86.7,0.003932969,0,851.5677,0,92,2.278,171,0.792,1.374,0,0,53.73,61.64,34.21,36.05
"2018-03-01 22:10:00",329954,1.1,330.4,-4.4,84.3,0.02359837,0,851.6647,0,92,2.279,172,0.797,1.377,0,0,53.67,61.64,34.19,36.05
"2018-03-01 22:20:00",329955,0.857,323.5,-4.488,84,0.00393307,0,851.8291,0,92,2.279,178,0.796,1.38,0,0,53.67,61.58,34.19,36.04
"2018-03-01 22:30:00",329956,1.123,285.3,-4.676,84.4,0,0,851.9998,0,92,2.28,199,0.798,1.394,0,0,53.67,61.64,34.19,36.05
"2018-03-01 22:40:00",329957,0.778,246.6,-4.711,85.7,0,0,852.1579,0,92,2.28,197,0.8,1.405,0,0,53.67,61.58,34.19,36.04
"2018-03-01 22:50:00",329958,0.74,273.3,-4.835,85.9,0,0,852.1642,0,92,2.281,198,0.819,1.41,0,0,53.67,61.64,34.19,36.05
"2018-03-01 23:00:00",329959,0.563,331,-4.963,87.1,0,0,852.3181,0,91.9,2.282,205,0.812,1.405,0,0,53.67,61.64,34.19,36.05
"2018-03-01 23:10:00",329960,0.461,325.5,-5.076,90.3,0,0,852.415,0,91.9,2.282,247,0.813,1.42,0,0,53.67,61.58,34.19,36.04
"2018-03-01 23:20:00",329961,1.139,302.6,-5.193,92.2,0.0472072,0,852.4466,0,91.5,2.288,213,0.825,1.425,0,0,53.67,61.58,34.19,36.04
"2018-03-01 23:30:00",329962,0.821,312.1,-5.41,94.6,0.1927686,0,852.5583,0,91.3,2.29,189,0.838,1.438,0,0,53.67,61.58,34.19,36.04
"2018-03-01 23:40:00",329963,1.09,305.3,-5.379,93.2,0.01180265,0,852.5668,0,91.6,2.287,190,0.845,1.45,0,0,53.61,61.58,34.18,36.04
"2018-03-01 23:50:00",329964,0.97,313.8,-5.53,89.5,0.01573689,0,852.5629,0,91.4,2.289,194,0.85,1.418,0,0,53.61,61.58,34.18,36.04
